Find Starlink 32040

NORAD ID: 60109 Int'l Des: 2024-117 Owner: SPXS Country: US Constellation: starlink operational
LEOCIRCULAR

現在のビュー

3D地球を読み込み中...

About Starlink 32040

Starlink 32040 (NORAD 60109) is a starlink constellation satellite (v2 mini) launched Jun 23, 2024 by SPXS of US. It operates in LEO, CIRCULAR orbit with a mass of 730.00 kg.

次回通過

Passes for default location (London). Set your location on the main map for personalized predictions.

高度履歴

Loading altitude history...

軌道要素

1 60109U 24117U 26264.56348534 -.00001204 00000-0 -24512-4 0 9996
2 60109 53.1585 204.6188 0001367 87.7069 272.4090 15.34389036126913
Epoch: Sep 21, 2026 • Age: 21 hours

現在のステータス

高度 468.4 km
遠地点 / 近地点 N/A
速度 7.64 km/s
衛星直下点 53.30°N, 133.92°E
打ち上げ日 Jun 23, 2024
運用期間 2.2 years
タイプ internet

技術仕様

分類 Payload
質量 730.00 kg
乾燥質量 700.00 kg
長さ 0.30 m
スパン 29.00 m
形状 ? Box + pan
製造者 SPXS
バスタイプ Starlink V2M
フェーズステータス In Orbit
所有者/国 SPXS/US

Most Searched